User: anonymous   Login
Location: Caribou
(46.8667°N, 68.0167°W)
Time: 19:28:22
(UTC-05:00)
Language:

SL-08 RB Rocket - Orbit

View from above orbital plane
View from above orbital plane
View from above satellite
View from above satellite

Ground track
Ground track

The orbit data is extracted from the following two-line orbital elements,

1 26387U 00033D   15030.84448762  .00000739  00000-0  13789-3 0  7240
2 26387 098.0785 100.8248 0026487 210.1720 275.1825 14.67674699780473
Epoch (UTC): 30 January 2015 20:16:03
Eccentricity: 0.0026487
inclination: 98.0785°
perigee height: 650 km
apogee height: 687 km
right ascension of ascending node: 100.8248°
argument of perigee: 210.1720°
revolutions per day: 14.67674699
mean anomaly at epoch: 275.1825°
orbit number at epoch: 78047

The dashed part of the orbit path shows where the satellite is in the earth's shadow,  

DLR